Home   Weather   Stockholm   Past weeks

Flag for Sweden Past Weather in Stockholm, Sweden — Yesterday and Last 2 Weeks

Now
25 °F

Cold.


Feels Like: 20 °F
Forecast: 22 / 35 °F
Wind: 3 mph from Northwest

Location: Stockholm Bromma Airport

Current Time: Dec 3, 2016 at 1:35:47 am

Latest Report: Dec 3, 2016 at 12:50 am


Visibility: N/A

Pressure: 30.01 "Hg

Humidity: 80%

Dew Point: 19 °F

Location of StockholmLocation

Past Weather in Stockholm — Graph

°F

Stockholm Temperature Yesterday

Maximum temperature yesterday: 34 °F (at 9:50 am)
Minimum temperature yesterday: 27 °F (at 10:50 pm)
Average temperature yesterday: 31 °F

High & Low Weather Summary for the Past Weeks

 TemperatureHumidityPressure
High48 °F (Nov 21, 6:50 am)100% (Nov 18, 1:50 am)30.24 "Hg (Nov 18, 1:50 am)
Low27 °F (Nov 25, 3:50 am)56% (Nov 27, 5:20 am)29.18 "Hg (Nov 18, 5:50 pm)
Average38 °F81%29.78 "Hg
* Reported Nov 18 12:20 am — Dec 3 12:20 am, Stockholm, Weather by CustomWeather, © 2016

Note: Actual official high and low records may vary slightly from our data, if they occured in-between our weather recording intervals... More about our weather records

Advertising

Stockholm Weather History for the Previous 24 Hours

Scroll right to see more
 ConditionsComfort  
Time TempWeatherWind HumidityBarometerVisibility
12:20 am
Sat, Dec 3
28 °FChilly.6 mph74%30.01 "HgN/A
11:50 pm
Fri, Dec 2
28 °FChilly.6 mph74%30.01 "HgN/A
11:20 pm27 °FPassing clouds.7 mph74%30.01 "HgN/A
10:50 pm27 °FPassing clouds.7 mph74%30.01 "HgN/A
10:20 pm28 °FChilly.8 mph69%30.01 "HgN/A
9:50 pm28 °FClear.7 mph69%30.01 "Hg10 mi
9:20 pm28 °FClear.7 mph69%30.01 "Hg10 mi
8:50 pm28 °FClear.8 mph74%29.98 "Hg10 mi
8:20 pm30 °FClear.12 mph69%29.98 "Hg10 mi
7:50 pm30 °FClear.9 mph69%29.98 "Hg10 mi
7:20 pm30 °FClear.9 mph75%29.95 "Hg10 mi
6:50 pm32 °FClear.12 mph69%29.95 "Hg10 mi
6:20 pm32 °FClear.12 mph69%29.95 "Hg10 mi
5:50 pm32 °FPassing clouds.13 mph69%29.95 "HgN/A
5:20 pm32 °FClear.10 mph75%29.92 "Hg10 mi
4:50 pm32 °FClear.12 mph75%29.92 "Hg10 mi
4:20 pm34 °FPassing clouds.13 mph70%29.92 "HgN/A
3:50 pm34 °FPassing clouds.14 mph75%29.89 "HgN/A
3:20 pm34 °FPassing clouds.12 mph70%29.89 "HgN/A
2:50 pm34 °FBroken clouds.13 mph70%29.86 "HgN/A
2:20 pm34 °FPartly sunny.14 mph75%29.86 "HgN/A
1:50 pm34 °FMostly cloudy.13 mph75%29.83 "HgN/A
1:20 pm34 °FPartly sunny.13 mph75%29.83 "HgN/A
12:50 pm34 °FPartly sunny.14 mph75%29.80 "HgN/A
12:20 pm34 °FBroken clouds.12 mph81%29.80 "HgN/A
11:50 am34 °FPartly sunny.12 mph81%29.77 "HgN/A
11:20 am34 °FBroken clouds.10 mph81%29.77 "HgN/A
10:50 am34 °FPartly sunny.12 mph81%29.77 "HgN/A
10:20 am34 °FBroken clouds.9 mph81%29.77 "HgN/A
9:50 am34 °FMostly cloudy.7 mph81%29.74 "HgN/A
9:20 am32 °FBroken clouds.6 mph80%29.74 "HgN/A
8:50 am32 °FSnow flurries. Partly sunny.9 mph87%29.71 "Hg3 mi
8:20 am32 °FPartly sunny.9 mph75%29.68 "HgN/A
7:50 am30 °FPassing clouds.8 mph80%29.68 "HgN/A
7:20 am30 °FPassing clouds.10 mph75%29.65 "HgN/A
6:50 am30 °FPassing clouds.8 mph75%29.65 "HgN/A
6:20 am30 °FPassing clouds.10 mph75%29.62 "HgN/A
5:50 am32 °FOvercast.10 mph69%29.62 "HgN/A
5:20 am30 °FPartly cloudy.9 mph75%29.62 "HgN/A
4:50 am30 °FPassing clouds.7 mph75%29.59 "HgN/A
4:20 am30 °FPassing clouds.10 mph69%29.59 "HgN/A
3:50 am30 °FChilly.10 mph69%29.59 "HgN/A
3:20 am30 °FPassing clouds.9 mph69%29.56 "HgN/A
2:50 am30 °FOvercast.8 mph69%29.56 "HgN/A
2:20 am30 °FOvercast.8 mph75%29.56 "HgN/A
1:50 am28 °FPassing clouds.8 mph74%29.53 "HgN/A
1:20 am28 °FChilly.7 mph74%29.53 "HgN/A
Weather by CustomWeather, © 2016

See weather overviewHow to use our weather pages